Regional Weather Roundup
Issued by NWS Cleveland, OH

Home | Current Version | Previous Version | Text Only | Print | Product List | Glossary Off
Versions: 1 2 3 4 5 6 7 8 9 10 11 12 13 14 15 16 17 18 19 20 21 22 23 24 25 26 27 28 29 30 31 32 33 34 35 36 37 38 39 40 41 42 43 44 45 46 47 48 49 50

000
ASUS41 KCLE 281610
RWRCLE
OHIO REGIONAL WEATHER ROUNDUP
NATIONAL WEATHER SERVICE WILMINGTON, OH
1200 PM EDT FRI AUG 28 2015

NOTE: "FAIR" INDICATES FEW OR NO CLOUDS BELOW 12,000 FEET WITH NO
SIGNIFICANT WEATHER AND/OR OBSTRUCTIONS TO VISIBILITY.

OHZ001>008-015>018-024>027-034-035-043-044-281700-
   NORTHWEST OHIO

CITY           SKY/WX    TMP DP  RH WIND       PRES   REMARKS
DEFIANCE       SUNNY     73  59  61 VRB5      30.21F
FINDLAY        SUNNY     74  57  55 W3        30.21R
TOLEDO EXPRESS SUNNY     71  58  63 S6        30.21R
TOLEDO EXEC    SUNNY    N/A N/A N/A VRB5      30.22S
LIMA           SUNNY     72  57  59 S3        30.21S
$$

OHZ009>014-019>023-028>033-038-089-281700-
   NORTHEAST OHIO

CITY           SKY/WX    TMP DP  RH WIND       PRES   REMARKS
CLE-HOPKINS    MOSUNNY   73  57  57 VRB5      30.24S
CLE-LAKEFRONT  SUNNY     72  57  59 N6        30.21S
CUY CO. ARPT   NOT AVBL
LORAIN-ELYRIA  MOSUNNY   71  57  61 VRB3      30.22F
ASHTABULA      MOSUNNY   69  57  65 VRB3      30.24S
AKRON-CANTON   MOSUNNY   73  55  53 CALM      30.23S
WOOSTER        SUNNY     74  54  49 CALM      30.23S
MANSFIELD      MOSUNNY   74  53  48 W6        30.22F
YOUNGSTOWN     PTSUNNY   70  55  59 CALM      30.24S
$$

OHZ042-051>053-060>062-070>072-077>081-281700-
  SOUTHWEST OHIO

CITY           SKY/WX    TMP DP  RH WIND       PRES   REMARKS
CINC-COVINGTON MOSUNNY   74  55  51 E3        30.21R
CINC-LUNKEN    MOSUNNY   74  62  66 VRB3      30.21R
HAMILTON       SUNNY     75  57  53 VRB6      30.22R
DAYTON         MOSUNNY   73  54  51 S7        30.23R
WRIGHT-PAT AFB SUNNY     74  57  55 VRB2      30.21S
DAYTON GENERAL SUNNY     72  54  53 VRB3      30.21R
WILMINGTON     SUNNY     71  54  54 E5        30.22R
$$

OHZ036-037-039>041-045>050-054>059-063>069-073>076-082>088-281700-
  CENTRAL AND SOUTHEAST OHIO

CITY           SKY/WX    TMP DP  RH WIND       PRES   REMARKS
COLUMBUS       MOSUNNY   71  55  56 CALM      30.21F
OSU AIRPORT    MOSUNNY   75  55  49 VRB5      30.21F
BOLTON FIELD   SUNNY     73  57  56 CALM      30.22F
RICKENBACK AFB SUNNY     73  56  55 E5        30.21S
NEWARK         SUNNY     75  55  49 CALM      30.21F
MARION         SUNNY     74  56  53 VRB3      30.22F
LANCASTER      MOSUNNY   76  55  48 NE6       30.22F
ZANESVILLE     PTSUNNY   75  52  44 NE7       30.22S
NEW PHILLY     SUNNY     76  55  48 NW5       30.23S
$$



USA.gov is the U.S. government's official web portal to all federal, state and local government web resources and services.